Weather History for KC09 - September, 2013

Change the Weather History Date:

Wednesday, September 11, 2013

  Actual Average (KLOT) Record (KLOT)
Temperature  
Mean Temperature 81 °F 67 °F  
Max Temperature 93 °F 78 °F 93 °F (2000)
Min Temperature 70 °F 57 °F 41 °F (1993)
Degree Days  
Heating Degree Days 0 2  
Month to date heating degree days 12  
Since 1 July heating degree days 20  
Cooling Degree Days 16 4  
Month to date cooling degree days 53  
Year to date cooling degree days 806  
Growing Degree Days 31 (Base 50)    
Moisture  
Dew Point 66 °F    
Average Humidity 66    
Maximum Humidity 86    
Minimum Humidity 40    
Precipitation  
Precipitation 0.00 in 0.10 in 2.13 in (2006)
Month to date precipitation 1.32  
Year to date precipitation 29.14  
Sea Level Pressure  
Sea Level Pressure 30.02 in    
Wind  
Wind Speed 7 mph (WSW)    
Max Wind Speed 16 mph    
Max Gust Speed 21 mph    
Visibility 10 miles    
Events Thunderstorm    
T = Trace of Precipitation, MM = Missing Value Source: NWS Daily Summary

Daily Weather History Graph

Daily Weather History Graph

Search for Another Location

Airport or City:

Trip Planner

Search our weather history database for the weather conditions in past years. The results will help you decide how hot, cold, wet, or windy it might be!

Date:

Astronomy

Sep. 11, 2013 Rise Set
Actual Time 6:30 AM CDT 7:09 PM CDT
Civil Twilight 6:02 AM CDT 7:37 PM CDT
Nautical Twilight 5:29 AM CDT 8:10 PM CDT
Astronomical Twilight 4:55 AM CDT 8:44 PM CDT
Moon 1:02 PM CDT (9/11) 11:00 PM CDT (9/11)
Length of Visible Light 13h 34m
Length of Day
12h 39m
Waxing Crescent, 39% of the Moon is Illuminated
Sep 11
Waxing Crescent
Sep 12
First Quarter
Sep 19
Full
Sep 26
Last Quarter
Oct 4
New

Hourly Weather History & Observations

Time (CDT) Temp. Heat Index Dew Point Humidity Pressure Visibility Wind Dir Wind Speed Gust Speed Precip Events Conditions
12:15 AM 77.9 °F - 64.4 °F 63% 30.01 in 10.0 mi SSW 9.2 mph - N/A   Clear
12:35 AM 77.9 °F - 64.4 °F 63% 30.01 in 10.0 mi SW 8.1 mph - N/A   Clear
12:55 AM 76.1 °F - 64.4 °F 67% 30.02 in 10.0 mi SW 5.8 mph - N/A   Clear
1:15 AM 75.2 °F - 64.4 °F 69% 30.02 in 10.0 mi SSW 6.9 mph - N/A   Clear
1:35 AM 75.6 °F - 64.4 °F 68% 30.01 in 10.0 mi SW 6.9 mph - N/A   Clear
1:55 AM 75.6 °F - 64.4 °F 68% 30.01 in 10.0 mi SW 5.8 mph - N/A   Clear
2:15 AM 74.1 °F - 64.4 °F 72% 30.01 in 10.0 mi WSW 3.5 mph - N/A   Clear
2:35 AM 72.5 °F - 64.4 °F 76% 30.02 in 10.0 mi SW 5.8 mph - N/A   Clear
2:55 AM 72.1 °F - 64.6 °F 77% 30.02 in 10.0 mi SW 5.8 mph - N/A   Clear
3:15 AM 71.2 °F - 64.6 °F 79% 30.02 in 10.0 mi SW 4.6 mph - N/A   Clear
3:35 AM 72.0 °F - 64.4 °F 77% 30.02 in 10.0 mi SW 4.6 mph - N/A   Clear
3:55 AM 71.1 °F - 64.6 °F 80% 30.02 in 10.0 mi SSW 3.5 mph - N/A   Clear
4:15 AM 73.2 °F - 64.4 °F 74% 30.02 in 10.0 mi SW 4.6 mph - N/A   Clear
4:35 AM 70.9 °F - 64.0 °F 79% 30.02 in 10.0 mi SSE 4.6 mph - N/A   Clear
4:55 AM 70.3 °F - 64.9 °F 83% 30.02 in 10.0 mi SSW 4.6 mph - N/A   Scattered Clouds
5:15 AM 72.0 °F - 64.9 °F 78% 30.02 in 10.0 mi SW 5.8 mph - N/A   Scattered Clouds
5:35 AM 70.9 °F - 65.1 °F 82% 30.03 in 10.0 mi South 4.6 mph - N/A   Mostly Cloudy
5:55 AM 70.7 °F - 65.3 °F 83% 30.03 in 10.0 mi SSW 4.6 mph - N/A   Scattered Clouds
6:15 AM 70.2 °F - 64.9 °F 83% 30.04 in 10.0 mi SSW 3.5 mph - N/A   Scattered Clouds
6:35 AM 70.9 °F - 65.5 °F 83% 30.05 in 10.0 mi SW 3.5 mph - N/A   Scattered Clouds
6:55 AM 70.7 °F - 65.7 °F 84% 30.05 in 10.0 mi SSW 3.5 mph - N/A   Scattered Clouds
7:15 AM 71.6 °F - 65.5 °F 81% 30.06 in 10.0 mi SSW 4.6 mph - N/A   Clear
7:35 AM 73.2 °F - 66.7 °F 80% 30.06 in 10.0 mi SW 3.5 mph - N/A   Clear
7:55 AM 74.7 °F - 66.4 °F 75% 30.06 in 10.0 mi WSW 4.6 mph - N/A   Clear
8:15 AM 76.5 °F - 66.4 °F 71% 30.05 in 10.0 mi SW 6.9 mph - N/A   Clear
8:35 AM 78.8 °F - 66.2 °F 65% 30.06 in 10.0 mi WSW 8.1 mph - N/A   Clear
8:55 AM 80.4 °F 82.7 °F 66.7 °F 63% 30.06 in 10.0 mi West 6.9 mph - N/A   Clear
9:15 AM 81.9 °F 84.1 °F 66.0 °F 59% 30.06 in 10.0 mi West 11.5 mph - N/A   Scattered Clouds
9:35 AM 81.7 °F 83.8 °F 66.2 °F 59% 30.06 in 10.0 mi West 6.9 mph - N/A   Scattered Clouds
9:55 AM 83.8 °F 85.6 °F 65.3 °F 53% 30.06 in 10.0 mi West 6.9 mph - N/A   Scattered Clouds
10:14 AM 84.2 °F 86.6 °F 66.2 °F 55% 30.06 in 10.0 mi West 8.1 mph - N/A   Scattered Clouds
10:15 AM 83.5 °F 85.5 °F 65.8 °F 55% 30.06 in 10.0 mi West 8.1 mph - N/A   Scattered Clouds
10:35 AM 84.0 °F 86.0 °F 65.5 °F 54% 30.06 in 10.0 mi West 6.9 mph - N/A   Clear
10:55 AM 85.3 °F 87.9 °F 66.9 °F 54% 30.05 in 10.0 mi West 5.8 mph - N/A   Clear
11:15 AM 85.6 °F 88.2 °F 66.7 °F 53% 30.05 in 10.0 mi WSW 8.1 mph - N/A   Clear
11:35 AM 87.1 °F 90.6 °F 67.8 °F 53% 30.04 in 10.0 mi SW 5.8 mph - N/A   Clear
11:55 AM 87.8 °F 90.4 °F 66.2 °F 49% 30.03 in 10.0 mi SW 5.8 mph - N/A   Clear
12:15 PM 89.2 °F 92.0 °F 66.7 °F 47% 30.03 in 10.0 mi SW 11.5 mph - N/A   Clear
12:35 PM 90.0 °F 92.8 °F 66.9 °F 46% 30.03 in 10.0 mi WSW 8.1 mph - N/A   Clear
12:55 PM 91.4 °F 94.9 °F 67.3 °F 45% 30.02 in 10.0 mi West 10.4 mph 17.3 mph N/A   Clear
1:15 PM 91.6 °F 94.3 °F 66.2 °F 43% 30.02 in 10.0 mi WSW 15.0 mph - N/A   Clear
1:35 PM 92.3 °F 95.1 °F 66.4 °F 42% 30.02 in 10.0 mi WSW 15.0 mph 19.6 mph N/A   Clear
1:55 PM 92.7 °F 96.2 °F 66.9 °F 43% 30.02 in 10.0 mi West 11.5 mph 20.7 mph N/A   Clear
2:15 PM 92.1 °F 94.8 °F 66.2 °F 42% 30.01 in 10.0 mi WSW 16.1 mph 19.6 mph N/A   Clear
2:35 PM 92.8 °F 95.2 °F 65.3 °F 40% 30.01 in 10.0 mi WNW 12.7 mph - N/A   Clear
2:55 PM 91.4 °F 94.0 °F 65.8 °F 43% 30.01 in 10.0 mi West 11.5 mph 18.4 mph N/A Thunderstorm Clear
3:15 PM 92.3 °F 94.7 °F 65.1 °F 41% 30.00 in 10.0 mi West 15.0 mph 20.7 mph N/A   Clear
3:35 PM 91.0 °F 93.0 °F 65.3 °F 42% 30.00 in 10.0 mi West 11.5 mph - N/A   Clear
3:55 PM 88.2 °F 90.9 °F 66.6 °F 49% 30.00 in 10.0 mi NNW 4.6 mph 20.7 mph N/A   Clear
4:15 PM 85.1 °F 87.4 °F 66.0 °F 53% 30.01 in 10.0 mi NNW 3.5 mph - N/A   Clear
4:35 PM 84.0 °F 86.8 °F 67.1 °F 57% 30.01 in 10.0 mi Calm Calm - N/A   Clear
4:55 PM 82.8 °F 85.3 °F 67.3 °F 59% 30.01 in 10.0 mi Calm Calm - N/A   Clear
5:15 PM 82.6 °F 85.7 °F 68.5 °F 62% 30.02 in 10.0 mi WNW 4.6 mph - N/A   Clear
5:35 PM 81.9 °F 85.2 °F 68.9 °F 65% 30.02 in 10.0 mi WNW 8.1 mph - N/A   Scattered Clouds
5:55 PM 80.8 °F 83.8 °F 68.9 °F 67% 30.02 in 10.0 mi WNW 6.9 mph - N/A   Scattered Clouds
6:15 PM 80.2 °F 83.1 °F 68.9 °F 68% 30.02 in 10.0 mi WNW 6.9 mph - N/A   Scattered Clouds
6:35 PM 79.2 °F - 68.0 °F 69% 30.02 in 10.0 mi West 9.2 mph - N/A   Mostly Cloudy
6:55 PM 78.4 °F - 65.8 °F 65% 30.01 in 10.0 mi West 6.9 mph - N/A   Mostly Cloudy
7:15 PM 76.8 °F - 66.2 °F 70% 30.01 in 10.0 mi West 6.9 mph - N/A   Scattered Clouds
7:35 PM 77.2 °F - 66.2 °F 69% 30.01 in 10.0 mi West 8.1 mph - N/A   Scattered Clouds
7:55 PM 77.4 °F - 66.4 °F 69% 30.01 in 10.0 mi West 5.8 mph - N/A   Clear
8:15 PM 76.3 °F - 66.7 °F 72% 30.01 in 10.0 mi West 4.6 mph - N/A   Clear
8:35 PM 75.4 °F - 66.9 °F 75% 30.01 in 10.0 mi West 4.6 mph - N/A   Clear
8:55 PM 74.8 °F - 67.1 °F 77% 30.01 in 10.0 mi West 3.5 mph - N/A   Scattered Clouds
9:15 PM 75.0 °F - 67.1 °F 76% 30.01 in 10.0 mi WNW 3.5 mph - N/A   Mostly Cloudy
9:35 PM 73.4 °F - 67.3 °F 81% 30.01 in 10.0 mi West 5.8 mph - N/A   Mostly Cloudy
9:55 PM 74.1 °F - 67.5 °F 80% 30.01 in 10.0 mi West 4.6 mph - N/A   Scattered Clouds
10:15 PM 73.6 °F - 67.3 °F 81% 30.01 in 10.0 mi WNW 5.8 mph - N/A   Scattered Clouds
10:35 PM 72.5 °F - 68.2 °F 86% 30.00 in 10.0 mi WNW 4.6 mph - N/A   Scattered Clouds
10:55 PM 73.8 °F - 67.5 °F 81% 30.01 in 10.0 mi WSW 6.9 mph - N/A   Mostly Cloudy
11:15 PM 73.6 °F - 67.5 °F 81% 30.01 in 10.0 mi SW 5.8 mph - N/A   Mostly Cloudy
11:35 PM 73.6 °F - 68.5 °F 84% 30.01 in 10.0 mi WSW 5.8 mph - N/A   Overcast
11:55 PM 73.6 °F - 68.5 °F 84% 30.00 in 10.0 mi WSW 6.9 mph - N/A   Overcast